Kosmos-1675

operational
NORAD ID: 15952 Int'l Des: 1985-071 Owner: PVO Country: SU
MEOELLIPTICALHEO_ELLIPTICALMOLNIYA_TYPE

关于 Kosmos-1675

正在加载描述...

实时位置

正在加载3D地球...

即将过境

高度历史

Altitude vs Time

uPlot chart will show altitude changes over time

两行轨道根数

1 15952U 85071A 26063.07874127 -.00000013 00000-0 00000-0 0 9991
2 15952 65.7162 56.9044 6245686 274.2200 21.5244 3.14134797386399
Epoch: Mar 4, 2026 • Age: 19 hours

当前状态

高度 21012.6 km
速度 2.98 km/s
星下点 57.85°N, 17.23°E
发射日期 Aug 12, 1985
运行时间 40.5 years
类型 other

技术详情

分类 Payload
质量 1250.00 kg
干质量 1150.00 kg
总质量 1250.00 kg
长度 4.00 m
直径 2.00 m
跨度 5.00 m
形状 Cyl + 2 Pan
制造商 NPOL/KOMET
平台类型 Oko
阶段状态 In Orbit
所有者/国家 PVO/SU

大型星座

Loading constellations...